Regional Weather Roundup
Issued by NWS Kansas City/Pleasant Hill, MO

Home | Current Version | Previous Version | Graphics & Text | Print | Product List | Glossary Off
Versions: 1 2 3 4 5 6 7 8 9 10 11 12 13 14 15 16 17 18 19 20 21 22 23 24 25 26 27 28 29 30 31 32 33 34 35 36 37 38 39 40 41 42 43 44 45 46 47 48 49 50

000
ASUS43 KEAX 250604
RWREAX

WEATHER ROUNDUP FOR EASTERN KANSAS AND NORTHWEST MISSOURI
NATIONAL WEATHER SERVICE KANSAS CITY/PLEASANT HILL MO
100 AM CDT SAT APR 25 2015

KSZ040-057-103>105-MOZ028-029-037-043-250700-
...KANSAS CITY METROPOLITAN AREA...

CITY           SKY/WX    TMP DP  RH WIND       PRES   REMARKS
K.C. INTL      CLOUDY    60  56  86 SE20      29.51F THUNDER
6HR MIN TEMP:  60; 6HR MAX TEMP:  63; 6HR PCP: TRACE;

K.C. DOWNTOWN  CLOUDY    62  55  77 SE13G20   29.52F
6HR MIN TEMP:  62; 6HR MAX TEMP:  66; 6HR PCP: TRACE;

LEES SUMMIT    CLOUDY    59  53  80 SE10      29.56F
6HR MIN TEMP:  59; 6HR MAX TEMP:  64;

OLATHE - IXD   CLOUDY    58  54  86 SE13      29.54F
6HR MIN TEMP:  58; 6HR MAX TEMP:  65;

OLATHE - OJC   CLOUDY    59  54  83 SE12      29.54F
6HR MIN TEMP:  59; 6HR MAX TEMP:  64;

LAWRENCE       CLOUDY    60  55  83 SE17      29.50S

$$

MOZ001>008-011>017-020>025-030>033-038>040-044>046-053-054-250700-
...NORTHERN AND CENTRAL MISSOURI...

CITY           SKY/WX    TMP DP  RH WIND       PRES   REMARKS
ST. JOSEPH     CLOUDY    60  55  83 SE15      29.49F
6HR MIN TEMP:  58; 6HR MAX TEMP:  61; 6HR PCP:  0.03;

MOSBY          MOCLDY    59  52  77 SE5       29.55F
WARRENSBURG    FAIR      55  52  88 E9        29.58F
WHITEMAN AFB   FAIR      55  52  89 SE8       29.58F
6HR MIN TEMP:  55; 6HR MAX TEMP:  62;

CLINTON        FAIR      55  54  94 E8        29.60S
SEDALIA        MOCLDY    56  51  84 SE9       29.62F
6HR MIN TEMP:  55; 6HR MAX TEMP:  63;

WARSAW         NOT AVBL
MARSHALL       MOCLDY    59  54  82 SE13      29.61F
CHILLICOTHE      N/A     57  50  77 SE7       29.57F
6HR MIN TEMP:  57; 6HR MAX TEMP:  62;

MOBERLY        LGT RAIN  55  48  76 SE15      29.63F
KIRKSVILLE     CLOUDY    56  50  80 SE9       29.64R
6HR MIN TEMP:  54; 6HR MAX TEMP:  63; 6HR PCP: TRACE;


$$

MOZ041-047>049-056>058-063>065-088>090-097-250700-
...EASTERN AND SOUTHERN MISSOURI...

CITY           SKY/WX    TMP DP  RH WIND       PRES   REMARKS
ST. LOUIS INTL CLOUDY    56  45  66 SE9       29.74R
6HR MIN TEMP:  56; 6HR MAX TEMP:  60;

SPIRIT OF STL  CLOUDY    53  47  79 E5        29.70F
COLUMBIA       CLOUDY    55  50  83 SE8       29.65F
JEFFERSON CITY CLOUDY    56  51  84 E8        29.68R
MEXICO         CLOUDY    55  54  94 SE8       29.69
HANNIBAL       FAIR      54  48  82 SE6       29.67F
ROLLA          CLOUDY    53  51  93 S15       29.65S
OSAGE BEACH    CLOUDY    57  52  82 SE7       29.65S
SPRINGFIELD    CLOUDY    58  56  93 S16       29.59F
BRANSON        FAIR      57  55  94 CALM      29.63F
NEVADA         FAIR      54  54 100 SE9       29.56F
JOPLIN         FAIR      61  56  83 S16       29.54F
WEST PLAINS    FOG       53  52  96 E5        29.69F VSB 1/4

$$

IAZ060-094-KSZ022-034>040-054-083-096-NEZ052-066-093-250700-
...KANSAS...SOUTHEAST NEBRASKA AND IOWA...

CITY           SKY/WX    TMP DP  RH WIND       PRES   REMARKS
TOPEKA         CLOUDY    63  59  87 SE14      29.47F
6HR MIN TEMP:  63; 6HR MAX TEMP:  65; 6HR PCP:  0.04;

MANHATTAN      CLOUDY    56  55  97 S6        29.42F
EMPORIA        TSTM      57  55  93 NW7       29.51R FOG
CHANUTE        FAIR      60  58  92 S13       29.51F
WICHITA        TSTM      64  59  83 S20       29.46S
OMAHA          LGT RAIN  57  54  89 E10       29.52F FOG
LINCOLN        LGT RAIN  56  53  90 NE12      29.48F
FALLS CITY     LGT RAIN  58  57  97 E5        29.48R
LAMONI         CLOUDY    57  52  83 E9        29.56F
DES MOINES     CLOUDY    50  44  80 E12       29.64R

$$



USA.gov is the U.S. government's official web portal to all federal, state and local government web resources and services.